SCP
2 2 2 2 2 1 0 0 0 0 0 0 0 0 0 0 0 0 0 0 0 0 1 2 2 2 1 1 1 1 1 1 1 1 2 1 1 1 1 1 1 1 1 1 1 1 1 2 2
2 2 2 2 1 0 0 0 0 0 0 0 0 0 0 0 0 0 0 0 0 0 1 2 3 3 2 1 1 1 1 1 1 1 2 2 2 1 1 1 1 1 1 1 1 1 1 2 2
1 2 2 2 1 0 0 0 0 0 0 0 0 0 0 0 0 0 0 0 0 0 1 3 4 4 3 2 1 1 1 1 1 1 2 2 2 2 1 1 1 1 1 1 1 1 1 1 1
1 2 2 1 0 0 0 0 0 0 0 0 0 0 0 0 0 0 0 0 0 0 1 3 4 5 4 3 2 1 1 1 1 1 1 1 1 1 1 2 1 1 1 1 1 1 1 1 1
2 2 1 0 0 0 0 0 0 0 0 0 0 0 0 0 0 0 0 0 0 0 1 2 4 5 4 3 2 1 1 1 1 1 1 1 1 1 1 2 2 2 2 1 1 1 1 1 1
1 1 1 0 0 0 0 0 0 0 0 0 0 0 0 0 0 0 0 0 0 0 1 2 4 4 4 3 2 1 0 0 1 1 1 1 1 1 1 1 2 2 2 2 1 1 1 1 1
1 1 0 0 0 0 0 0 0 0 0 0 0 0 0 0 0 0 0 0 0 0 1 1 3 3 3 2 1 1 1 0 1 1 1 1 1 1 1 1 1 2 2 1 1 1 1 1 2
1 0 0 0 0 0 0 0 0 0 0 0 0 0 0 0 0 0 0 1 0 0 0 1 1 2 2 2 1 1 1 1 1 1 1 1 1 1 1 1 1 1 1 1 1 1 1 1 2
1 0 0 0 0 0 0 0 0 0 0 0 0 0 0 0 0 0 0 0 0 0 0 0 1 1 1 1 1 1 1 1 1 1 1 1 1 1 1 1 1 1 1 1 1 1 1 2 2
0 0 0 0 0 0 0 0 0 0 0 0 0 0 0 0 0 0 0 1 1 1 0 0 0 1 1 1 1 1 1 1 1 1 1 2 2 1 1 1 1 1 1 1 1 1 1 2 2
0 0 0 0 0 0 0 0 0 0 0 0 0 0 0 0 1 1 1 1 1 1 1 1 1 1 1 1 1 1 1 1 1 1 2 2 2 2 1 1 1 1 1 1 1 1 2 2 2
0 0 0 0 0 0 0 0 0 0 0 0 0 0 1 1 1 1 2 2 2 2 2 1 1 1 1 1 1 1 1 1 1 1 2 2 2 2 2 1 1 1 1 1 1 2 2 2 2
0 0 0 0 0 0 0 0 0 0 0 0 1 1 1 1 2 2 2 2 2 2 2 1 1 1 1 1 1 1 1 1 1 1 1 1 2 2 2 2 1 1 1 1 2 2 2 2 2
0 1 1 1 0 0 0 0 0 0 1 1 1 1 2 2 2 2 2 2 2 1 1 1 1 1 1 1 1 1 1 1 1 1 1 1 1 2 2 1 1 1 1 1 2 2 3 3 3
0 0 0 1 0 0 0 0 1 1 1 1 1 2 2 2 1 1 1 1 1 1 1 1 1 1 1 1 1 1 1 1 1 1 1 1 1 1 1 1 1 1 1 1 2 3 3 3 3
0 0 0 0 1 0 0 1 1 1 1 1 1 2 1 1 1 1 1 1 1 1 1 1 1 1 1 1 1 1 1 1 2 2 2 1 1 1 1 1 1 1 1 1 2 3 3 3 3
0 0 0 0 0 1 1 1 1 1 1 1 2 2 1 1 0 0 1 1 1 1 1 1 1 1 1 1 1 1 1 1 2 2 2 1 1 1 1 1 1 1 1 1 1 2 3 2 2
0 0 0 0 0 1 1 1 1 1 1 2 2 2 1 1 0 0 1 1 2 2 1 1 1 1 1 1 1 1 1 1 1 1 1 1 1 1 1 1 1 1 1 1 1 2 2 1 1
0 0 0 0 0 1 1 1 1 1 2 2 2 2 1 1 0 1 1 1 2 1 1 1 1 1 1 1 1 1 1 1 1 1 1 1 1 1 1 1 1 1 1 1 1 1 1 1 1
0 0 0 0 0 1 1 1 1 2 2 2 2 2 1 1 1 1 1 1 1 1 1 1 1 1 1 1 1 1 1 1 1 1 1 1 1 1 1 1 1 1 1 1 1 1 1 1 1
0 0 0 0 0 0 1 1 1 2 2 2 2 2 1 1 1 1 1 1 1 1 1 1 1 1 1 1 1 1 1 1 1 1 1 1 1 1 1 1 1 1 1 1 1 1 1 1 1
0 0 0 0 0 0 0 0 1 2 2 2 2 2 1 1 1 1 1 1 1 1 1 1 1 1 2 2 2 1 1 1 1 1 1 1 1 1 1 1 1 1 1 1 1 1 1 1 1
0 0 0 0 0 0 0 0 1 1 2 2 2 2 1 1 1 1 1 1 1 1 1 1 1 2 3 3 3 2 1 1 2 2 2 2 2 2 2 1 1 1 1 1 1 1 1 1 1
0 0 0 0 0 0 0 0 0 1 2 2 2 2 1 1 1 1 1 1 1 1 1 1 2 3 4 5 4 3 2 2 3 3 4 4 3 3 2 2 1 1 1 1 1 1 1 1 1
0 0 0 0 0 0 0 0 0 1 1 2 2 2 1 1 1 1 1 2 2 1 1 2 2 4 5 6 5 4 3 3 3 4 4 5 5 4 3 2 2 1 1 1 1 1 1 2 1
0 0 0 0 0 0 0 0 1 1 1 1 2 2 1 1 1 2 2 2 2 2 2 2 3 4 5 6 6 6 4 4 4 4 5 5 5 4 3 2 2 1 1 1 1 2 2 2 2
0 0 0 0 0 0 0 0 1 1 1 1 1 1 1 1 2 2 2 3 3 3 3 3 3 3 4 5 6 6 6 5 5 5 5 5 5 4 3 2 2 1 1 2 2 2 3 3 3
0 0 0 0 0 0 0 0 1 1 1 1 1 1 1 1 2 2 2 3 3 3 3 3 3 3 4 5 6 6 7 6 6 6 7 6 5 4 3 2 1 2 2 3 3 4 4 5 4
0 0 0 0 0 0 0 0 1 1 1 1 1 1 1 2 2 2 2 3 3 3 3 3 3 3 3 4 5 6 7 8 8 8 7 6 4 3 2 2 1 2 2 3 4 4 5 5 5
0 0 0 0 0 0 0 0 1 1 1 1 1 1 1 2 2 2 2 3 3 3 3 3 3 3 3 4 5 6 8 9 9 9 7 6 4 3 2 2 2 2 3 4 4 5 5 6 6
Wind_Speed
11 8 5 5 6 3 11 10 8 7 6 6 6 5 7 8 8 8 7 6 6 7 8 9 8 7 7 7 7 7 7 8 8 9 9 9 9 9 10 10 10 10 10 10 11 11 10 10 10
7 6 6 6 2 8 11 9 10 9 6 5 6 6 8 9 8 7 7 7 6 7 7 8 8 7 7 7 7 7 7 7 8 9 9 8 8 8 8 9 9 9 9 9 10 10 10 10 10
6 6 6 2 7 10 10 9 9 8 6 4 5 6 7 7 6 6 8 8 7 7 7 9 7 7 7 7 7 7 7 7 7 8 8 8 8 8 8 8 9 9 9 9 9 9 9 9 9
5 6 5 3 12 11 9 8 7 7 6 5 5 7 8 7 5 7 8 7 7 7 7 10 7 6 6 6 6 6 7 7 7 7 7 7 7 7 7 7 8 8 8 8 8 9 9 9 9
6 5 1 8 11 9 9 7 5 6 6 6 5 8 8 6 7 8 8 7 7 7 7 9 8 6 5 5 5 6 6 6 6 6 6 6 6 6 6 6 7 7 8 8 8 8 8 9 9
5 4 3 8 10 8 7 5 5 7 7 6 6 7 7 6 7 7 7 6 6 6 7 9 9 6 6 5 5 5 5 5 6 6 6 6 5 5 5 5 6 7 7 7 7 8 8 8 8
5 3 7 8 8 7 6 4 5 6 6 5 4 6 7 7 7 7 6 6 6 6 6 6 7 8 7 6 6 5 5 6 6 6 6 6 6 5 5 5 6 7 7 7 7 7 7 7 7
5 2 6 7 6 7 5 4 5 5 7 5 3 5 7 8 8 8 7 6 6 6 5 5 5 5 5 7 7 6 6 6 6 6 5 5 5 5 5 5 6 6 6 7 6 6 6 6 6
6 0 7 7 6 6 5 4 5 5 7 6 5 6 10 11 9 8 7 7 6 5 4 3 5 4 4 5 7 6 6 5 4 5 5 3 3 4 4 6 5 5 5 6 6 6 5 5 7
3 4 9 6 5 5 4 4 4 4 6 6 8 9 11 10 9 7 6 6 6 5 4 3 3 3 3 3 4 2 3 4 2 2 2 2 2 2 3 6 5 5 5 6 6 5 6 6 4
2 5 6 5 5 4 4 4 3 3 4 5 8 11 11 10 8 7 6 5 5 4 4 4 3 2 2 2 2 2 2 2 2 3 2 2 1 2 2 3 4 4 5 4 5 6 3 2 1
2 4 3 4 4 3 4 4 4 3 6 6 9 12 12 10 8 7 6 5 5 4 3 3 3 3 2 2 1 2 2 1 2 2 1 2 1 1 2 1 1 2 2 2 2 2 3 2 2
3 4 4 4 3 4 4 4 4 5 6 8 10 11 10 9 7 6 6 4 4 3 3 3 2 2 2 1 0 2 2 2 2 2 2 2 1 1 1 1 1 1 1 2 2 2 3 3 3
3 3 3 4 5 4 5 5 4 6 7 9 10 10 9 8 7 6 5 4 4 3 3 3 3 3 2 1 1 1 1 2 2 2 2 1 1 1 1 1 1 1 1 1 2 3 2 2 2
3 4 5 5 4 4 4 5 4 6 8 9 9 9 9 7 6 5 5 4 4 3 3 3 2 2 2 1 0 1 1 1 1 2 2 1 1 1 0 1 1 1 2 3 2 3 3 3 3
6 5 4 5 3 3 5 3 7 7 7 8 8 8 8 7 6 5 5 5 4 3 3 2 1 2 2 1 0 0 1 1 1 1 1 1 1 0 1 0 1 1 2 3 3 2 2 2 2
6 3 3 5 4 3 4 3 7 6 7 7 8 8 8 8 7 5 5 5 5 4 3 3 2 2 1 1 1 1 1 1 1 1 1 1 1 0 0 1 2 1 2 2 2 3 2 2 2
2 1 2 2 4 4 4 2 5 6 6 7 8 7 8 8 7 7 6 6 5 4 4 3 3 2 2 2 1 1 1 1 1 1 2 1 1 1 1 2 2 1 2 2 2 3 3 2 2
2 2 1 2 2 3 3 3 4 6 7 8 8 8 8 7 7 7 7 6 6 5 4 4 3 3 2 1 1 1 1 1 1 1 2 1 1 1 1 1 2 1 2 3 3 2 3 2 2
5 5 3 3 2 3 3 3 3 6 8 8 8 9 9 8 8 8 8 7 7 6 5 4 4 3 3 2 1 1 0 0 1 1 2 1 1 1 1 1 1 2 2 3 3 2 1 2 2
7 6 3 2 3 5 5 5 5 6 7 8 9 9 9 9 9 9 9 8 8 7 6 4 4 4 3 3 2 2 2 1 2 2 1 1 1 1 1 1 1 1 1 2 2 2 2 1 1
6 3 4 5 6 3 5 3 3 6 7 9 9 10 10 10 10 10 10 9 9 8 7 6 5 4 4 4 3 2 1 1 1 1 1 1 1 1 1 1 1 0 1 1 2 2 1 1 1
3 2 5 6 7 6 5 6 2 6 6 8 9 10 9 10 10 10 10 10 9 8 7 7 5 4 4 4 4 3 2 1 1 1 2 0 1 1 1 1 1 1 1 1 0 1 1 1 1
4 5 6 8 8 7 4 6 2 3 4 5 7 8 9 9 10 10 10 9 9 8 7 7 6 5 5 5 5 4 2 2 1 1 1 1 1 1 1 1 1 1 1 1 2 1 2 1 1
10 9 7 7 7 4 2 6 2 1 2 4 5 7 8 9 10 10 11 10 10 9 8 7 7 6 6 6 5 5 4 4 3 2 2 1 1 1 1 1 1 1 1 2 2 2 2 2 2
10 11 8 6 5 2 5 5 1 2 2 4 5 6 7 8 9 10 11 11 10 10 9 9 8 7 7 6 5 5 5 4 3 2 2 1 1 0 1 1 1 2 2 2 2 2 2 2 2
9 10 8 9 8 7 4 3 3 4 5 6 6 7 8 8 8 9 10 11 11 10 10 10 9 8 7 7 6 5 5 3 2 2 3 2 1 1 2 2 2 2 2 3 3 2 3 3 3
8 7 7 8 8 8 6 6 4 7 7 7 7 7 7 7 7 7 8 9 9 9 10 9 9 9 8 7 6 5 5 4 3 3 2 2 2 1 2 2 2 2 3 3 3 3 3 3 3
9 10 9 8 8 9 6 2 2 6 6 6 7 7 7 7 7 7 7 8 9 9 10 9 9 9 8 7 6 5 5 5 5 4 3 3 2 2 2 2 2 2 3 3 3 3 3 4 3
9 10 11 9 8 9 9 2 3 4 4 5 5 6 6 7 7 7 7 8 9 9 9 9 9 9 8 7 7 6 5 5 5 4 4 3 3 3 2 2 2 3 3 3 3 3 3 3 4
Wind_Direction
179 188 214 236 232 83 62 57 54 65 65 61 57 54 55 40 35 70 84 94 101 106 105 111 104 106 107 109 105 104 107 113 123 131 131 129 128 129 131 132 134 135 137 139 140 142 146 144 141
178 188 228 242 320 67 62 57 62 59 71 84 74 70 71 67 58 87 105 103 109 106 106 101 107 108 109 110 109 108 108 110 114 125 127 131 131 129 129 132 133 133 136 139 141 145 147 146 143
191 228 261 273 47 51 64 65 69 72 72 73 79 61 56 67 77 91 103 119 117 110 110 107 111 108 109 110 111 111 109 109 112 119 124 126 128 127 125 130 137 136 140 144 146 147 147 145 142
215 227 235 59 65 55 60 71 77 90 82 69 83 83 74 57 70 99 115 121 117 115 114 109 112 107 110 113 116 115 114 114 114 116 120 123 124 124 127 133 138 141 146 148 148 147 147 146 147
243 256 149 75 66 65 68 68 75 80 77 77 84 88 84 76 95 111 121 122 115 113 112 110 108 104 106 109 110 113 117 117 119 119 119 119 122 122 125 129 141 145 147 148 150 149 151 153 155
249 253 61 71 75 77 77 74 77 84 93 96 98 95 86 98 110 115 112 113 110 111 114 116 124 117 108 106 106 106 108 112 116 118 118 115 114 115 122 124 131 142 146 150 151 151 150 152 158
297 2 63 73 83 85 79 66 62 80 86 82 96 99 107 114 116 118 117 118 111 111 109 116 125 127 126 116 106 104 103 101 102 105 106 107 107 112 117 126 137 143 147 148 150 152 154 153 160
294 304 77 71 72 79 91 81 65 68 83 90 94 101 118 126 128 125 121 115 112 109 110 116 113 116 129 124 114 106 101 95 98 104 104 114 132 141 142 143 134 144 149 151 156 158 158 159 166
260 276 64 55 58 83 110 107 90 84 101 99 80 78 107 127 135 133 130 125 118 110 106 113 121 126 116 111 117 134 130 118 139 134 136 171 150 132 145 100 120 139 149 152 156 157 160 172 170
276 45 56 46 51 84 110 99 106 121 111 112 110 106 121 137 141 136 133 129 123 116 113 111 105 119 115 107 117 126 120 112 111 97 121 122 102 101 105 118 131 138 154 165 159 167 183 201 174
28 48 63 68 68 84 106 103 112 119 106 120 130 134 139 144 142 137 129 122 118 124 121 116 108 94 88 99 114 99 92 98 116 105 125 108 127 127 130 133 149 157 180 174 166 189 185 162 132
85 68 60 77 70 84 99 110 105 83 80 102 126 137 145 151 146 141 136 135 129 129 123 117 123 121 93 63 90 113 104 105 86 92 83 108 102 100 97 115 115 162 153 153 169 152 144 150 149
111 90 86 93 96 90 103 104 95 95 100 113 129 141 148 147 143 139 134 135 133 137 134 127 144 129 122 95 352 86 87 77 82 73 70 60 99 91 97 98 107 153 136 158 157 146 146 154 145
85 104 115 119 115 117 115 114 123 105 123 128 138 146 151 149 149 145 145 146 147 146 129 128 154 137 132 130 107 92 105 97 74 75 69 45 69 72 97 156 165 154 153 128 163 149 149 138 131
155 156 143 132 136 134 153 133 121 124 138 141 147 150 154 155 156 154 150 161 160 151 132 133 145 138 143 147 131 119 110 101 85 83 86 50 57 81 230 149 174 143 154 157 161 144 144 147 145
203 208 167 137 157 172 232 113 123 143 154 153 154 157 163 163 168 164 159 164 162 157 141 145 148 126 128 141 149 85 62 87 103 108 96 75 42 51 295 60 117 149 160 152 152 143 130 123 127
203 201 146 142 169 190 224 124 131 158 169 167 166 167 171 169 176 172 171 168 163 160 153 159 155 140 133 144 161 145 121 100 98 98 87 77 60 53 360 55 74 140 129 137 143 120 119 121 119
189 185 156 152 153 199 213 166 149 173 183 179 178 175 177 178 177 176 176 170 164 163 165 169 168 159 171 170 154 139 131 140 112 95 83 75 78 73 17 94 78 99 108 112 101 110 111 111 111
259 257 238 110 135 220 223 219 179 183 194 190 188 184 183 184 174 172 175 174 171 172 174 176 181 170 188 185 195 167 139 133 111 104 80 84 77 92 62 52 101 98 98 102 115 116 128 123 115
228 238 220 154 152 234 249 241 202 192 204 199 195 192 187 183 179 177 179 180 180 179 179 178 185 184 193 171 184 188 135 153 108 83 83 74 89 115 140 90 114 111 117 120 120 122 113 123 132
231 243 243 217 194 215 247 218 193 188 203 200 202 199 194 189 186 181 184 186 185 183 183 183 188 185 184 175 180 168 162 175 130 125 118 99 92 99 66 100 71 101 149 116 133 144 136 131 147
229 242 242 229 246 235 260 267 178 185 196 199 203 202 199 192 189 185 184 186 188 187 182 181 185 184 179 181 180 186 167 146 111 129 105 116 103 100 117 120 113 161 119 123 181 125 171 183 168
259 231 236 243 260 264 235 263 171 172 204 198 198 202 199 193 190 187 186 183 187 185 182 178 178 181 180 180 174 191 194 183 151 142 125 157 120 121 119 137 140 182 184 136 153 140 227 217 221
201 203 217 234 250 251 251 265 221 176 208 192 185 191 193 189 188 187 184 180 185 184 184 178 172 177 179 180 179 186 189 198 173 174 155 185 149 144 137 148 165 201 185 169 194 203 188 219 267
216 226 225 222 224 236 199 254 258 120 186 198 183 179 181 181 183 183 182 183 186 185 184 180 176 178 181 182 185 185 192 197 197 209 182 216 177 153 150 188 209 208 181 190 200 199 208 205 212
222 242 254 268 268 231 193 241 167 125 160 176 180 176 175 177 179 183 183 184 186 185 184 180 178 181 181 182 184 189 195 203 195 197 218 213 218 194 160 211 217 225 219 213 203 216 200 189 201
222 236 259 265 267 269 237 211 203 175 174 175 175 172 174 178 175 180 185 185 186 185 185 184 179 180 182 182 182 188 195 201 197 195 211 213 213 200 203 223 223 229 229 229 227 222 208 197 208
252 239 232 249 261 260 244 231 205 186 186 178 178 176 173 174 172 176 182 183 184 185 183 184 182 181 183 184 190 185 190 193 198 211 217 232 230 215 226 237 235 240 240 233 232 224 201 205 205
207 222 240 249 259 266 261 233 112 186 193 194 188 179 177 181 176 173 177 179 180 180 179 180 182 181 182 188 191 192 191 189 195 202 209 215 224 217 223 234 242 247 243 237 232 234 218 213 210
239 237 230 240 239 254 270 240 119 179 189 200 191 177 176 180 175 172 172 172 176 178 179 179 182 183 183 184 188 191 190 192 197 196 205 213 217 223 222 228 233 245 244 239 232 228 224 221 221